Flag for Romania Weather past 2 weeks in Cluj-Napoca, Romania

Now
61 °F

Passing clouds.


Feels Like: 61 °F
Forecast: 63 / 81 °F
Wind: No wind

Location: Cluj Airport-Napoca

Current Time: Jul 24, 2014 at 4:04:07 AM

Latest Report: Jul 24, 2014 at 3:00 AM


Visibility: 4 mi

Pressure: 29.80 "Hg

Humidity: 100%

Dew point: 61 °F

Location of Cluj-NapocaLocation

Historic Weather in Cluj-Napoca — Graph

°F

Cluj-Napoca temperature yesterday

Maximum temperature yesterday: 75 °F (at 2:30 PM)
Minimum temperature yesterday: 63 °F (at 2:00 AM)
Average temperature yesterday: 67 °F

Past Weeks' High & Low Weather Summary

 TemperatureHumidityPressure
High88 °F (Jul 21, 4:30 PM)100% (Jul 9, 8:00 AM)30.04 "Hg (Jul 9, 8:00 AM)
Low54 °F (Jul 12, 5:30 AM)29% (Jul 15, 6:30 PM)29.59 "Hg (Jul 11, 6:30 AM)
Average70 °F70%29.89 "Hg
* Reported Jul 9 3:00 AM — Jul 24 3:00 AM, Cluj-Napoca, Weather by CustomWeather, © 2014

Note: Actual official high and low records may vary slightly from our data, if they occured in-between our weather recording intervals... More about our weather records

Advertising

Cluj-Napoca weather history for previous 24 hours

 ConditionsComfort  
Time TempWeatherWind HumidityBarometerVisibility
3:00 AM
Jul 24
61 °FPassing clouds.No wind100%29.80 "Hg4 mi
2:00 AM63 °FPassing clouds.2 mph94%29.80 "HgN/A
1:00 AM63 °FFog.5 mph94%29.80 "HgN/A
12:00 AM64 °FPassing clouds.7 mph94%29.80 "HgN/A
11:30 PM
Jul 23
64 °FPassing clouds.7 mph94%29.80 "HgN/A
11:00 PM64 °FClear.9 mph94%29.80 "Hg10 mi
10:30 PM66 °FClear.7 mph88%29.80 "Hg10 mi
10:00 PM66 °FScattered clouds.7 mph88%29.80 "HgN/A
9:30 PM66 °FScattered clouds.7 mph88%29.77 "HgN/A
9:00 PM68 °FScattered clouds.7 mph83%29.77 "HgN/A
8:30 PM68 °FScattered clouds.7 mph83%29.77 "HgN/A
8:00 PM68 °FScattered clouds.7 mph83%29.77 "HgN/A
7:30 PM68 °FScattered clouds.7 mph83%29.77 "HgN/A
7:00 PM70 °FPassing clouds.5 mph83%29.77 "HgN/A
6:30 PM68 °FPassing clouds.2 mph88%29.77 "HgN/A
6:00 PM66 °FScattered clouds.2 mph88%29.77 "HgN/A
5:30 PM64 °FSprinkles. Scattered clouds.5 mph94%29.77 "HgN/A
5:00 PM63 °FThunderstorms. Scattered clouds.5 mph100%29.77 "HgN/A
4:00 PM63 °FStrong thunderstorms. Partly sunny.7 mph100%29.80 "Hg1 mi
3:30 PM73 °FThunderstorms. Scattered clouds.7 mph69%29.74 "HgN/A
3:00 PM75 °FPassing clouds.5 mph65%29.74 "HgN/A
2:30 PM75 °FPassing clouds.2 mph69%29.77 "HgN/A
2:00 PM73 °FPassing clouds.7 mph74%29.77 "HgN/A
1:30 PM72 °FSprinkles. Passing clouds.5 mph78%29.77 "HgN/A
1:00 PM72 °FScattered clouds.7 mph78%29.77 "HgN/A
12:30 PM72 °FScattered clouds.9 mph78%29.77 "HgN/A
12:00 PM70 °FScattered clouds.9 mph83%29.77 "HgN/A
11:00 AM68 °FScattered clouds.7 mph88%29.77 "HgN/A
8:30 AM64 °FLight rain. Broken clouds.2 mph94%29.77 "HgN/A
8:00 AM64 °FLight rain. Mostly cloudy.2 mph94%29.77 "HgN/A
7:30 AM64 °FLight rain. Mostly cloudy.5 mph94%29.77 "Hg4 mi
7:00 AM64 °FLight rain. Fog.2 mph94%29.80 "Hg3 mi
6:30 AM64 °FOvercast.No wind94%29.77 "HgN/A
6:00 AM64 °FOvercast.No wind94%29.77 "HgN/A
5:30 AM64 °FPassing clouds.No wind94%29.77 "HgN/A
5:00 AM63 °FPassing clouds.No wind100%29.77 "HgN/A
4:00 AM64 °FLight rain. Passing clouds.No wind94%29.80 "HgN/A
Weather by CustomWeather, © 2014

See weather overviewHow to use our weather pages